Location: Chuathbaluk
(61.5726°N, 159.2454°W)
Time: 07:41:43
(UTC+00:00)

NUDT-PHONESAT - Pass Details

Date: 25 January 2021
Orbit: 479 x 498 km, 97.4° (Epoch: 08 March)

Event Time Altitude Azimuth Distance (km) Brightness Sun altitude
Rises 16:27:43 0° 23° (NNE) 2,613 ? -19.0°
Reaches altitude 10° 16:30:16 10° 41° (NE) 1,722 ? -18.7°
Maximum altitude 16:33:02 20° 89° (E) 1,226 ? -18.4°
Drops below altitude 10° 16:35:46 10° 138° (SE) 1,708 ? -18.1°
Sets 16:38:17 0° 156° (SSE) 2,584 ? -17.8°
